Showing default

TROLL, 62658

Orbit data source: Space-Track

TROLL, 62658 is a Czech payload satellite in SSO that was launched on Tue, 14 Jan 2025 UTC via an FALCON 9 launch vehicle from the Air Force Western Test Range (AFWTR). Payload-class satellites include a variety of spacecraft equipped with specific instruments for various scientific and technological missions. These include communications satellites like Starlink; space stations such as the ISS; scientific satellites like the Hubble; Earth observation satellites from companies like Planet Labs, Umbra, and HawkEye 360; GPS; miniature CubeSats for education and research; and military/defense satellites.

Loading next visibility...
Identifier
62658, 2025-009BB
Orbit
SSO
Country
Flag of CZCZ / CZE
Related business
Manufacturer
ISIS BV
Mission
Operational Commercial Technology
Bus & Motor
CUBESAT 6U, Unknown motor
Mass
~10 kg wet, ~10 kg dry
Launch date (UTC)
2025-01-14 (1 year ago)
Launch vehicle
FALCON 9
Launch site
Air Force Western Test Range (AFWTR)
Object type
Payload
Rocket body
Debris
Shape & HBR
Box + 2 Pan, 0.1 m
Radar Cross Section
0.080 m², Small (<0.1 m²)

Expand to show TLE details & history
Last TLE update: 15 hours ago

TLE from 15 hours ago
0 TROLL
1 62658U 25009BB  26035.21418969  .00012099  00000-0  45427-3 0  9995
2 62658  97.3995 117.9637 0002519 109.5420 250.6091 15.27344417113133
Epoch: 2026-02-04T05:08Z
TLE epoch observation values (Epoch: 2026-02-04T05:08:25.989Z)
Latitude
-0.00004°
Longitude
-93.52857°
Altitude
487.429 km
Speed
7.621 km/s
True Right ascension
07h 51m 51s
True Declination
0° 00' 00"
Sunlit
Object was in full shadow at epoch
Visualization orbit readout
Latitude
Unknown
Longitude
Unknown
Altitude
Unknown
Speed
Unknown
Apparent Right ascension
Unknown
Apparent Declination
Unknown
Sunlit
N/A
Visualization observer readout
Local Sidereal Time
21:40:21
Azimuth
Unknown
Elevation
Unknown
Doppler factor
Unknown
Orbital elements
Apogee altitude
482.438 km
Perigee altitude
478.983 km
Semi-major axis
6,858.847 km
Eccentricity
0.00025
Inclination
97.3995°
RAAN
117.9637°
Arg. of periapsis
109.542°
True anomaly
250.58187°
Mean anomaly
250.6091°
Eccentric anomaly
250.59549°
Mean motion
3.82091 °/min
Orbital period
94.22 mins
BSTAR
0.00045427
Loading maneuver chart data...
Computing Atmospheric mass density...
Loading historical data...
Loading historical data...
Loading historical data...
Loading historical data...
Loading historical data...
Loading historical data...
Loading historical data...

Documentation

Showing up to 5 results
|